Simultaneous Nadir Overpasses (SNOs) Predictions

Prediction of SNOs between NOAA-19 and NPP Satellite Orbit:

Table of predicted SNOs for the next 14.0 days since TLE Epoch: 4/10/2020
Index Date (NOAA-19) Time (NOAA-19) Lat,Lon (NOAA-19) SZA (NOAA-19 ) Date (NPP) Time (NPP) Lat,Lon (NPP) SZA (NPP ) Distance(km) Time Diff (sec)
1 04/23/2020 18:43:53 79.41,-135.09 68.35 04/23/2020 18:44:59 79.42,-134.96 68.32 3.20 66
2 04/23/2020 19:34:49 -79.44, 32.46 111.67 04/23/2020 19:35:44 -79.42, 32.32 111.69 3.10 55
3 04/23/2020 20:25:53 79.43,-160.41 68.32 04/23/2020 20:26:29 79.42,-160.36 68.30 1.16 36
4 04/23/2020 21:16:50 -79.43, 6.85 111.69 04/23/2020 21:17:14 -79.43, 6.92 111.71 1.34 24
5 04/23/2020 22:07:53 79.44, 174.27 68.30 04/23/2020 22:07:59 79.43, 174.24 68.28 1.98 6
6 04/23/2020 22:58:50 -79.44, -18.47 111.72 04/23/2020 22:58:44 -79.43, -18.48 111.73 1.44 6
7 04/23/2020 23:49:54 79.43, 148.67 68.27 04/23/2020 23:49:29 79.43, 148.84 68.26 3.51 25
8 04/24/2020 00:40:50 -79.46, -43.79 111.75 04/24/2020 00:40:14 -79.43, -43.89 111.75 3.61 36
9 04/24/2020 01:31:54 79.45, 123.35 68.25 04/24/2020 01:30:59 79.43, 123.43 68.25 2.73 55
10 04/24/2020 02:22:51 -79.45, -69.40 111.77 04/24/2020 02:21:44 -79.44, -69.29 111.76 2.66 67




NCC Satellite Simultaneous Nadir Overpasses (SNOs) Prediction Service
